Time,TemperatureF,DewpointF,PressureIn,WindDirection,WindDirectionDegrees,WindSpeedMPH,WindSpeedGustMPH,Humidity,HourlyPrecipIn,Conditions,Clouds,dailyrainin,SolarRadiationWatts/m^2,SoftwareType,DateUTC
2013-02-19 00:00:00,31.2,18.5,30.14,SE,146,11.5,11.5,59,0.00,CLR,,0.00,0.0,WeatherDisplay:10.37,2013-02-19 05:00:00,
2013-02-19 00:05:00,31.2,18.5,30.14,SE,141,5.8,5.8,59,0.00,CLR,,0.00,0.0,WeatherDisplay:10.37,2013-02-19 05:05:00,
2013-02-19 00:10:00,31.2,18.5,30.13,SE,130,5.8,5.8,59,0.00,CLR,,0.00,0.0,WeatherDisplay:10.37,2013-02-19 05:10:00,
2013-02-19 00:11:00,31.2,18.5,30.13,SSE,157,5.8,5.8,59,0.00,CLR,,0.00,0.0,WeatherDisplay:10.37,2013-02-19 05:11:00,
2013-02-19 00:16:00,31.2,18.5,30.13,ESE,119,4.0,4.0,59,0.00,CLR,,0.00,0.0,WeatherDisplay:10.37,2013-02-19 05:16:00,
2013-02-19 00:21:00,31.1,18.4,30.13,SSE,149,5.8,5.8,59,0.00,CLR,,0.00,0.0,WeatherDisplay:10.37,2013-02-19 05:21:00,
2013-02-19 00:26:00,31.2,18.5,30.13,SSE,151,4.6,4.6,59,0.00,CLR,,0.00,0.0,WeatherDisplay:10.37,2013-02-19 05:26:00,
2013-02-19 00:31:00,31.2,18.1,30.13,SE,140,5.0,5.0,58,0.00,CLR,,0.00,0.0,WeatherDisplay:10.37,2013-02-19 05:31:00,
2013-02-19 00:37:00,31.1,18.4,30.13,SE,146,6.9,6.9,59,0.00,CLR,,0.00,0.0,WeatherDisplay:10.37,2013-02-19 05:37:00,
2013-02-19 00:42:00,31.1,18.4,30.12,SE,135,5.8,5.8,59,0.00,CLR,,0.00,0.0,WeatherDisplay:10.37,2013-02-19 05:42:00,
2013-02-19 00:47:00,31.1,18.8,30.12,South,182,9.2,9.2,60,0.00,CLR,,0.00,0.0,WeatherDisplay:10.37,2013-02-19 05:47:00,
2013-02-19 00:52:00,31.2,18.5,30.12,SSE,147,5.8,5.8,59,0.00,CLR,,0.00,0.0,WeatherDisplay:10.37,2013-02-19 05:52:00,
2013-02-19 00:57:00,31.3,19.0,30.12,SE,126,5.0,5.0,60,0.00,CLR,,0.00,0.0,WeatherDisplay:10.37,2013-02-19 05:57:00,
2013-02-19 01:02:00,31.3,19.0,30.11,SE,140,8.0,8.0,60,0.00,CLR,,0.00,0.0,WeatherDisplay:10.37,2013-02-19 06:02:00,
2013-02-19 01:07:00,31.3,19.0,30.11,SE,140,6.9,6.9,60,0.00,CLR,,0.00,0.0,WeatherDisplay:10.37,2013-02-19 06:07:00,
2013-02-19 01:12:00,31.3,19.0,30.10,SSE,152,6.0,6.0,60,0.00,CLR,,0.00,0.0,WeatherDisplay:10.37,2013-02-19 06:12:00,
2013-02-19 01:17:00,31.3,19.4,30.10,ESE,117,11.5,11.5,61,0.00,CLR,,0.00,0.0,WeatherDisplay:10.37,2013-02-19 06:17:00,
2013-02-19 01:22:00,31.4,19.9,30.10,SSE,160,6.0,6.0,62,0.00,CLR,,0.00,0.0,WeatherDisplay:10.37,2013-02-19 06:22:00,
2013-02-19 01:27:00,31.5,19.6,30.10,SSE,150,4.0,4.0,61,0.00,CLR,,0.00,0.0,WeatherDisplay:10.37,2013-02-19 06:27:00,
2013-02-19 01:32:00,31.5,20.0,30.09,SE,130,4.6,4.6,62,0.00,CLR,,0.00,0.0,WeatherDisplay:10.37,2013-02-19 06:32:00,
2013-02-19 01:37:00,31.4,19.9,30.09,SE,135,11.5,11.5,62,0.00,CLR,,0.00,0.0,WeatherDisplay:10.37,2013-02-19 06:37:00,
2013-02-19 01:42:00,31.4,20.2,30.09,SE,141,6.9,6.9,63,0.00,CLR,,0.00,0.0,WeatherDisplay:10.37,2013-02-19 06:42:00,
2013-02-19 01:47:00,31.4,20.2,30.09,SE,137,8.0,8.0,63,0.00,CLR,,0.00,0.0,WeatherDisplay:10.37,2013-02-19 06:47:00,
2013-02-19 01:52:00,31.4,20.6,30.09,ESE,123,5.8,5.8,64,0.00,CLR,,0.00,0.0,WeatherDisplay:10.37,2013-02-19 06:52:00,
2013-02-19 01:57:00,31.4,21.0,30.08,SE,124,6.9,6.9,65,0.00,CLR,,0.00,0.0,WeatherDisplay:10.37,2013-02-19 06:57:00,
2013-02-19 02:02:00,31.3,20.9,30.08,SSE,161,8.1,8.1,65,0.00,CLR,,0.00,0.0,WeatherDisplay:10.37,2013-02-19 07:02:00,
2013-02-19 02:07:00,31.4,21.3,30.08,SSE,150,6.9,6.9,66,0.00,CLR,,0.00,0.0,WeatherDisplay:10.37,2013-02-19 07:07:00,
2013-02-19 02:12:00,31.4,21.7,30.08,SE,136,8.1,8.1,67,0.00,CLR,,0.00,0.0,WeatherDisplay:10.37,2013-02-19 07:12:00,
2013-02-19 02:17:00,31.6,21.9,30.07,SE,136,8.1,8.1,67,0.00,CLR,,0.00,0.0,WeatherDisplay:10.37,2013-02-19 07:17:00,
2013-02-19 02:22:00,31.6,22.2,30.07,SE,138,8.1,8.1,68,0.00,CLR,,0.00,0.0,WeatherDisplay:10.37,2013-02-19 07:22:00,
2013-02-19 02:27:00,31.5,22.1,30.07,SE,130,5.8,5.8,68,0.00,CLR,,0.00,0.0,WeatherDisplay:10.37,2013-02-19 07:27:00,
2013-02-19 02:32:00,31.4,22.4,30.07,SE,141,4.6,4.6,69,0.00,CLR,,0.00,0.0,WeatherDisplay:10.37,2013-02-19 07:32:00,
2013-02-19 02:37:00,31.4,22.4,30.07,SE,139,9.2,9.2,69,0.00,CLR,,0.00,0.0,WeatherDisplay:10.37,2013-02-19 07:37:00,
2013-02-19 02:42:00,31.5,22.5,30.07,SE,146,8.0,8.0,69,0.00,CLR,,0.00,0.0,WeatherDisplay:10.37,2013-02-19 07:42:00,
2013-02-19 02:47:00,31.6,22.9,30.07,SSE,159,5.8,5.8,70,0.00,CLR,,0.00,0.0,WeatherDisplay:10.37,2013-02-19 07:47:00,
2013-02-19 02:52:00,31.6,22.9,30.07,SSE,163,5.8,5.8,70,0.00,CLR,,0.00,0.0,WeatherDisplay:10.37,2013-02-19 07:52:00,
2013-02-19 02:57:00,31.6,22.9,30.07,SSE,159,4.0,4.0,70,0.00,CLR,,0.00,0.0,WeatherDisplay:10.37,2013-02-19 07:57:00,
2013-02-19 03:02:00,31.6,22.9,30.07,SSE,155,4.6,4.6,70,0.00,CLR,,0.00,0.0,WeatherDisplay:10.37,2013-02-19 08:02:00,
2013-02-19 03:07:00,31.5,22.8,30.07,SE,146,5.8,5.8,70,0.00,CLR,,0.00,0.0,WeatherDisplay:10.37,2013-02-19 08:07:00,
2013-02-19 03:12:00,31.5,23.2,30.07,ESE,115,5.8,5.8,71,0.00,CLR,,0.00,0.0,WeatherDisplay:10.37,2013-02-19 08:12:00,
2013-02-19 03:17:00,31.6,23.3,30.07,ESE,123,4.6,4.6,71,0.00,CLR,,0.00,0.0,WeatherDisplay:10.37,2013-02-19 08:17:00,
2013-02-19 03:22:00,31.6,23.3,30.06,SE,142,4.6,4.6,71,0.00,CLR,,0.00,0.0,WeatherDisplay:10.37,2013-02-19 08:22:00,
2013-02-19 03:27:00,31.5,23.2,30.06,SSE,148,5.8,5.8,71,0.00,CLR,,0.00,0.0,WeatherDisplay:10.37,2013-02-19 08:27:00,
2013-02-19 03:32:00,31.5,23.5,30.06,SE,142,4.6,4.6,72,0.00,CLR,,0.00,0.0,WeatherDisplay:10.37,2013-02-19 08:32:00,
2013-02-19 03:37:00,31.6,23.6,30.06,SE,142,8.1,8.1,72,0.00,CLR,,0.00,0.0,WeatherDisplay:10.37,2013-02-19 08:37:00,
2013-02-19 03:42:00,31.9,23.9,30.05,SE,134,4.6,4.6,72,0.00,CLR,,0.00,0.0,WeatherDisplay:10.37,2013-02-19 08:42:00,
2013-02-19 03:47:00,32.1,23.8,30.05,South,175,6.9,6.9,71,0.00,CLR,,0.00,0.0,WeatherDisplay:10.37,2013-02-19 08:47:00,
2013-02-19 03:52:00,32.3,23.9,30.05,SE,145,9.2,9.2,71,0.00,CLR,,0.00,0.0,WeatherDisplay:10.37,2013-02-19 08:52:00,
2013-02-19 03:57:00,32.5,24.1,30.04,SSE,149,6.9,6.9,71,0.00,CLR,,0.00,0.0,WeatherDisplay:10.37,2013-02-19 08:57:00,
2013-02-19 04:02:00,32.7,24.0,30.04,SSE,154,5.8,5.8,70,0.00,CLR,,0.00,0.0,WeatherDisplay:10.37,2013-02-19 09:02:00,
2013-02-19 04:07:00,32.8,24.1,30.03,SE,140,6.9,6.9,70,0.00,CLR,,0.00,0.0,WeatherDisplay:10.37,2013-02-19 09:07:00,
2013-02-19 04:12:00,32.9,24.2,30.03,SE,138,4.6,4.6,70,0.00,CLR,,0.00,0.0,WeatherDisplay:10.37,2013-02-19 09:12:00,
2013-02-19 04:17:00,33.0,24.3,30.02,ESE,123,8.1,8.1,70,0.00,CLR,,0.00,0.0,WeatherDisplay:10.37,2013-02-19 09:17:00,
2013-02-19 04:22:00,33.0,24.3,30.02,SE,127,5.8,5.8,70,0.00,CLR,,0.00,0.0,WeatherDisplay:10.37,2013-02-19 09:22:00,
2013-02-19 04:27:00,33.0,24.3,30.02,ESE,119,5.8,5.8,70,0.00,CLR,,0.00,0.0,WeatherDisplay:10.37,2013-02-19 09:27:00,
2013-02-19 04:32:00,33.1,24.4,30.02,ESE,117,5.8,5.8,70,0.00,CLR,,0.00,0.0,WeatherDisplay:10.37,2013-02-19 09:32:00,
2013-02-19 04:38:00,33.0,24.3,30.02,SSE,153,6.9,6.9,70,0.00,CLR,,0.00,0.0,WeatherDisplay:10.37,2013-02-19 09:38:00,
2013-02-19 04:43:00,33.0,24.3,30.02,SE,132,5.8,5.8,70,0.00,CLR,,0.00,0.0,WeatherDisplay:10.37,2013-02-19 09:43:00,
2013-02-19 04:48:00,33.0,24.3,30.02,SE,136,4.6,4.6,70,0.00,CLR,,0.00,0.0,WeatherDisplay:10.37,2013-02-19 09:48:00,
2013-02-19 04:53:00,33.0,24.3,30.01,SE,133,8.0,8.0,70,0.00,CLR,,0.00,0.0,WeatherDisplay:10.37,2013-02-19 09:53:00,
2013-02-19 04:58:00,33.0,24.3,30.01,SSE,157,9.2,9.2,70,0.00,CLR,,0.00,0.0,WeatherDisplay:10.37,2013-02-19 09:58:00,
2013-02-19 05:03:00,33.0,24.3,30.01,SSE,148,10.4,10.4,70,0.00,CLR,,0.00,0.0,WeatherDisplay:10.37,2013-02-19 10:03:00,
2013-02-19 05:08:00,33.2,24.5,30.01,SSE,147,9.2,9.2,70,0.00,CLR,,0.00,0.0,WeatherDisplay:10.37,2013-02-19 10:08:00,
2013-02-19 05:13:00,33.3,24.2,30.01,SSE,156,11.5,11.5,69,0.00,CLR,,0.00,0.0,WeatherDisplay:10.37,2013-02-19 10:13:00,
2013-02-19 05:18:00,33.5,24.4,30.01,ESE,111,8.1,8.1,69,0.00,CLR,,0.00,0.0,WeatherDisplay:10.37,2013-02-19 10:18:00,
2013-02-19 05:23:00,33.7,24.6,30.01,SE,126,5.8,5.8,69,0.00,CLR,,0.00,0.0,WeatherDisplay:10.37,2013-02-19 10:23:00,
2013-02-19 05:28:00,33.7,24.6,30.00,South,169,4.6,4.6,69,0.00,CLR,,0.00,0.0,WeatherDisplay:10.37,2013-02-19 10:28:00,
2013-02-19 05:33:00,33.7,24.3,29.99,ESE,115,5.8,5.8,68,0.00,CLR,,0.00,0.0,WeatherDisplay:10.37,2013-02-19 10:33:00,
2013-02-19 05:38:00,33.8,24.4,29.99,SSE,151,9.2,9.2,68,0.00,CLR,,0.00,0.0,WeatherDisplay:10.37,2013-02-19 10:38:00,
2013-02-19 05:43:00,33.8,24.4,29.99,SE,134,5.8,5.8,68,0.00,CLR,,0.00,0.0,WeatherDisplay:10.37,2013-02-19 10:43:00,
2013-02-19 05:48:00,33.9,24.4,29.98,SE,125,8.1,8.1,68,0.00,CLR,,0.00,0.0,WeatherDisplay:10.37,2013-02-19 10:48:00,
2013-02-19 05:53:00,34.0,24.5,29.98,SE,126,8.1,8.1,68,0.00,CLR,,0.00,0.0,WeatherDisplay:10.37,2013-02-19 10:53:00,
2013-02-19 05:58:00,34.2,24.4,29.98,SSE,152,9.2,9.2,67,0.00,CLR,,0.00,0.0,WeatherDisplay:10.37,2013-02-19 10:58:00,
2013-02-19 06:03:00,34.1,24.3,29.98,SSE,153,8.1,8.1,67,0.00,CLR,,0.00,0.0,WeatherDisplay:10.37,2013-02-19 11:03:00,
2013-02-19 06:08:00,34.1,24.6,29.97,SE,137,6.0,6.0,68,0.00,CLR,,0.00,0.0,WeatherDisplay:10.37,2013-02-19 11:08:00,
2013-02-19 06:13:00,34.2,24.7,29.98,SSE,151,5.8,5.8,68,0.00,CLR,,0.00,0.0,WeatherDisplay:10.37,2013-02-19 11:13:00,
2013-02-19 06:18:00,34.1,24.6,29.98,SE,133,6.0,6.0,68,0.00,CLR,,0.00,0.0,WeatherDisplay:10.37,2013-02-19 11:18:00,
2013-02-19 06:23:00,34.1,24.6,29.98,SE,139,8.1,8.1,68,0.00,CLR,,0.00,0.0,WeatherDisplay:10.37,2013-02-19 11:23:00,
2013-02-19 06:28:00,34.1,24.6,29.98,SSE,161,5.8,5.8,68,0.00,CLR,,0.00,0.0,WeatherDisplay:10.37,2013-02-19 11:28:00,
2013-02-19 06:33:00,33.9,24.8,29.98,South,181,4.6,4.6,69,0.00,CLR,,0.00,0.0,WeatherDisplay:10.37,2013-02-19 11:33:00,
2013-02-19 06:38:00,33.9,24.8,29.98,SE,136,6.0,6.0,69,0.00,CLR,,0.00,0.0,WeatherDisplay:10.37,2013-02-19 11:38:00,
2013-02-19 06:43:00,34.1,25.0,29.98,ESE,111,6.9,6.9,69,0.00,CLR,,0.00,0.0,WeatherDisplay:10.37,2013-02-19 11:43:00,
2013-02-19 06:48:00,34.4,25.3,29.98,SSE,154,6.9,6.9,69,0.00,CLR,,0.00,9.0,WeatherDisplay:10.37,2013-02-19 11:48:00,
2013-02-19 06:53:00,34.4,24.9,29.97,South,175,7.0,7.0,68,0.00,CLR,,0.00,11.0,WeatherDisplay:10.37,2013-02-19 11:53:00,
2013-02-19 06:58:00,34.6,25.1,29.97,SE,135,7.0,7.0,68,0.00,CLR,,0.00,7.0,WeatherDisplay:10.37,2013-02-19 11:58:00,
2013-02-19 07:03:00,34.8,25.3,29.97,SE,145,11.5,11.5,68,0.00,CLR,,0.00,9.0,WeatherDisplay:10.37,2013-02-19 12:03:00,
2013-02-19 07:08:00,35.1,25.6,29.97,SSE,153,11.0,11.0,68,0.00,CLR,,0.00,11.0,WeatherDisplay:10.37,2013-02-19 12:08:00,
2013-02-19 07:13:00,35.5,25.6,29.97,SE,142,6.9,6.9,67,0.00,CLR,,0.00,12.0,WeatherDisplay:10.37,2013-02-19 12:13:00,
2013-02-19 07:18:00,35.5,25.6,29.96,South,190,6.9,6.9,67,0.00,CLR,,0.00,14.0,WeatherDisplay:10.37,2013-02-19 12:18:00,
2013-02-19 07:23:00,35.5,25.6,29.97,SSE,151,9.2,9.2,67,0.00,CLR,,0.00,23.0,WeatherDisplay:10.37,2013-02-19 12:23:00,
2013-02-19 07:28:00,35.6,25.7,29.97,SSE,153,11.5,11.5,67,0.00,CLR,,0.00,33.0,WeatherDisplay:10.37,2013-02-19 12:28:00,
2013-02-19 07:33:00,35.8,25.9,29.98,South,173,8.1,8.1,67,0.00,CLR,,0.00,35.0,WeatherDisplay:10.37,2013-02-19 12:33:00,
2013-02-19 07:38:00,35.9,26.0,29.96,South,174,11.5,11.5,67,0.00,CLR,,0.00,35.0,WeatherDisplay:10.37,2013-02-19 12:38:00,
2013-02-19 07:43:00,36.1,25.8,29.96,SSE,147,8.1,8.1,66,0.00,CLR,,0.00,35.0,WeatherDisplay:10.37,2013-02-19 12:43:00,
2013-02-19 07:48:00,36.2,25.9,29.95,SE,142,9.2,9.2,66,0.00,CLR,,0.00,49.0,WeatherDisplay:10.37,2013-02-19 12:48:00,
2013-02-19 07:53:00,36.4,26.1,29.96,SE,132,11.5,11.5,66,0.00,CLR,,0.00,62.0,WeatherDisplay:10.37,2013-02-19 12:53:00,
2013-02-19 07:58:00,36.6,26.3,29.95,SSE,158,9.2,9.2,66,0.00,CLR,,0.00,95.0,WeatherDisplay:10.37,2013-02-19 12:58:00,
2013-02-19 08:03:00,36.8,26.5,29.94,SSE,160,10.4,10.4,66,0.00,CLR,,0.00,158.0,WeatherDisplay:10.37,2013-02-19 13:03:00,
2013-02-19 08:08:00,37.1,26.8,29.94,SE,136,11.5,11.5,66,0.00,CLR,,0.00,113.0,WeatherDisplay:10.37,2013-02-19 13:08:00,
2013-02-19 08:13:00,37.3,26.6,29.94,SE,146,8.1,8.1,65,0.00,CLR,,0.00,118.0,WeatherDisplay:10.37,2013-02-19 13:13:00,
2013-02-19 08:18:00,37.4,26.7,29.94,SSE,157,11.5,11.5,65,0.00,CLR,,0.00,149.0,WeatherDisplay:10.37,2013-02-19 13:18:00,
2013-02-19 08:23:00,37.5,27.2,29.93,SE,128,12.0,12.0,66,0.00,CLR,,0.00,171.0,WeatherDisplay:10.37,2013-02-19 13:23:00,
2013-02-19 08:28:00,37.8,27.1,29.92,SSE,163,12.7,12.7,65,0.00,CLR,,0.00,153.0,WeatherDisplay:10.37,2013-02-19 13:28:00,
2013-02-19 08:33:00,37.9,26.8,29.91,ESE,111,11.5,11.5,64,0.00,CLR,,0.00,139.0,WeatherDisplay:10.37,2013-02-19 13:33:00,
2013-02-19 08:38:00,38.0,27.3,29.91,SE,133,12.0,12.0,65,0.00,CLR,,0.00,144.0,WeatherDisplay:10.37,2013-02-19 13:38:00,
2013-02-19 08:43:00,38.0,27.3,29.90,SE,141,11.5,11.5,65,0.00,CLR,,0.00,135.0,WeatherDisplay:10.37,2013-02-19 13:43:00,
2013-02-19 08:48:00,38.1,27.4,29.91,SSE,153,12.7,12.7,65,0.00,CLR,,0.00,139.0,WeatherDisplay:10.37,2013-02-19 13:48:00,
2013-02-19 08:53:00,38.2,27.5,29.91,SSE,150,9.2,9.2,65,0.00,CLR,,0.00,148.0,WeatherDisplay:10.37,2013-02-19 13:53:00,
2013-02-19 08:58:00,38.3,27.6,29.92,South,170,9.2,9.2,65,0.00,CLR,,0.00,127.0,WeatherDisplay:10.37,2013-02-19 13:58:00,
2013-02-19 09:03:00,38.4,27.7,29.91,SE,134,8.1,8.1,65,0.00,FEW,,0.00,139.0,WeatherDisplay:10.37,2013-02-19 14:03:00,
2013-02-19 09:08:00,38.6,27.8,29.91,SSE,153,5.8,5.8,65,0.00,FEW,,0.00,146.0,WeatherDisplay:10.37,2013-02-19 14:08:00,
2013-02-19 09:13:00,38.9,28.1,29.91,SE,134,8.1,8.1,65,0.00,FEW,,0.00,149.0,WeatherDisplay:10.37,2013-02-19 14:13:00,
2013-02-19 09:18:00,39.1,27.9,29.90,SE,135,10.4,10.4,64,0.00,FEW,,0.00,139.0,WeatherDisplay:10.37,2013-02-19 14:18:00,
2013-02-19 09:23:00,39.5,27.9,29.91,SSE,165,11.5,11.5,63,0.00,FEW,,0.00,156.0,WeatherDisplay:10.37,2013-02-19 14:23:00,
2013-02-19 09:28:00,39.8,28.2,29.91,SE,133,9.2,9.2,63,0.00,FEW,,0.00,171.0,WeatherDisplay:10.37,2013-02-19 14:28:00,
2013-02-19 09:33:00,40.2,28.2,29.91,South,170,11.5,11.5,62,0.00,FEW,,0.00,193.0,WeatherDisplay:10.37,2013-02-19 14:33:00,
2013-02-19 09:38:00,40.5,28.5,29.91,SSE,159,12.0,12.0,62,0.00,FEW,,0.00,193.0,WeatherDisplay:10.37,2013-02-19 14:38:00,
2013-02-19 09:43:00,40.6,28.2,29.90,SSE,166,10.4,10.4,61,0.00,FEW,,0.00,167.0,WeatherDisplay:10.37,2013-02-19 14:43:00,
2013-02-19 09:48:00,40.5,28.5,29.90,SSW,194,12.7,12.7,62,0.00,FEW,,0.00,160.0,WeatherDisplay:10.37,2013-02-19 14:48:00,
2013-02-19 09:53:00,40.5,28.5,29.90,SSE,150,11.5,11.5,62,0.00,FEW,,0.00,123.0,WeatherDisplay:10.37,2013-02-19 14:53:00,
2013-02-19 09:58:00,40.5,28.5,29.90,SSE,150,10.4,10.4,62,0.00,FEW,,0.00,98.0,WeatherDisplay:10.37,2013-02-19 14:58:00,
2013-02-19 10:03:00,40.4,28.4,29.91,SSE,164,10.4,10.4,62,0.00,-RA,,0.00,65.0,WeatherDisplay:10.37,2013-02-19 15:03:00,
2013-02-19 10:08:00,40.3,28.3,29.90,SSE,152,11.5,11.5,62,0.00,-RA,,0.00,32.0,WeatherDisplay:10.37,2013-02-19 15:08:00,
2013-02-19 10:13:00,40.1,29.6,29.90,SSE,165,10.4,10.4,66,0.00,-RA,,0.00,28.0,WeatherDisplay:10.37,2013-02-19 15:13:00,
2013-02-19 10:18:00,39.7,30.0,29.90,South,186,12.0,12.0,68,0.00,-RA,,0.00,33.0,WeatherDisplay:10.37,2013-02-19 15:18:00,
2013-02-19 10:23:00,38.8,30.5,29.90,SE,145,11.5,11.5,72,0.00,-RA,,0.01,39.0,WeatherDisplay:10.37,2013-02-19 15:23:00,
2013-02-19 10:28:00,38.2,31.0,29.90,South,190,11.5,11.5,75,0.01,-RA,,0.01,35.0,WeatherDisplay:10.37,2013-02-19 15:28:00,
2013-02-19 10:33:00,37.9,31.7,29.90,South,178,16.1,16.1,78,0.01,-RA,,0.01,21.0,WeatherDisplay:10.37,2013-02-19 15:33:00,
2013-02-19 10:38:00,37.7,32.1,29.90,SE,133,11.5,11.5,80,0.01,-RA,,0.01,18.0,WeatherDisplay:10.37,2013-02-19 15:38:00,
2013-02-19 10:43:00,37.3,32.3,29.90,South,181,11.5,11.5,82,0.02,-RA,,0.02,16.0,WeatherDisplay:10.37,2013-02-19 15:43:00,
2013-02-19 10:48:00,36.7,32.0,29.90,SSE,164,10.4,10.4,83,0.02,-RA,,0.02,16.0,WeatherDisplay:10.37,2013-02-19 15:48:00,
2013-02-19 10:53:00,36.1,31.7,29.90,SSE,167,11.0,11.0,84,0.03,-RA,,0.03,14.0,WeatherDisplay:10.37,2013-02-19 15:53:00,
2013-02-19 10:58:00,35.7,31.9,29.90,SE,140,11.5,11.5,86,0.03,-RA,,0.03,16.0,WeatherDisplay:10.37,2013-02-19 15:58:00,
2013-02-19 11:03:00,35.0,31.5,29.90,South,177,9.2,9.2,87,0.03,-SN,,0.04,21.0,WeatherDisplay:10.37,2013-02-19 16:03:00,
2013-02-19 11:08:00,34.7,31.5,29.90,South,180,8.1,8.1,88,0.04,-SN,,0.04,21.0,WeatherDisplay:10.37,2013-02-19 16:08:00,
2013-02-19 11:13:00,34.6,31.4,29.90,SSE,154,5.8,5.8,88,0.04,-SN,,0.04,39.0,WeatherDisplay:10.37,2013-02-19 16:13:00,
2013-02-19 11:18:00,34.6,31.7,29.89,SSE,157,9.2,9.2,89,0.04,-SN,,0.04,39.0,WeatherDisplay:10.37,2013-02-19 16:18:00,
2013-02-19 11:23:00,34.5,31.6,29.89,SE,135,6.0,6.0,89,0.04,-SN,,0.04,37.0,WeatherDisplay:10.37,2013-02-19 16:23:00,
2013-02-19 11:28:00,34.4,31.8,29.88,SSE,152,8.1,8.1,90,0.04,-SN,,0.05,37.0,WeatherDisplay:10.37,2013-02-19 16:28:00,
2013-02-19 11:33:00,34.4,31.8,29.88,SSE,160,8.1,8.1,90,0.04,-SN,,0.05,37.0,WeatherDisplay:10.37,2013-02-19 16:33:00,
2013-02-19 11:38:00,34.4,31.8,29.88,SE,144,8.0,8.0,90,0.04,-SN,,0.05,35.0,WeatherDisplay:10.37,2013-02-19 16:38:00,
2013-02-19 11:43:00,34.4,32.0,29.88,SE,142,6.9,6.9,91,0.03,-SN,,0.05,30.0,WeatherDisplay:10.37,2013-02-19 16:43:00,
2013-02-19 11:48:00,34.4,32.0,29.86,SE,145,8.1,8.1,91,0.04,-SN,,0.06,97.0,WeatherDisplay:10.37,2013-02-19 16:48:00,
2013-02-19 11:53:00,34.4,32.0,29.86,SSE,153,6.0,6.1,91,0.03,-SN,,0.06,60.0,WeatherDisplay:10.37,2013-02-19 16:53:00,
2013-02-19 11:58:00,34.7,32.3,29.85,SE,142,9.2,9.2,91,0.03,-SN,,0.06,63.0,WeatherDisplay:10.37,2013-02-19 16:58:00,
2013-02-19 12:03:00,35.0,32.6,29.85,South,169,10.4,10.4,91,0.03,-SN,,0.06,53.0,WeatherDisplay:10.37,2013-02-19 17:03:00,
2013-02-19 12:08:00,35.2,33.1,29.84,SSE,167,8.1,8.1,92,0.03,-SN,,0.07,49.0,WeatherDisplay:10.37,2013-02-19 17:08:00,
2013-02-19 12:13:00,35.3,33.2,29.84,South,182,11.5,11.5,92,0.03,-SN,,0.07,53.0,WeatherDisplay:10.37,2013-02-19 17:13:00,
2013-02-19 12:18:00,35.4,33.3,29.83,SE,132,8.1,8.1,92,0.03,-SN,,0.07,53.0,WeatherDisplay:10.37,2013-02-19 17:18:00,
2013-02-19 12:23:00,35.6,33.5,29.83,SE,126,8.1,8.1,92,0.03,-SN,,0.07,47.0,WeatherDisplay:10.37,2013-02-19 17:23:00,
2013-02-19 12:28:00,35.7,33.6,29.83,SSE,147,8.1,8.1,92,0.02,-SN,,0.07,53.0,WeatherDisplay:10.37,2013-02-19 17:28:00,
2013-02-19 12:33:00,35.8,33.7,29.82,SE,144,8.1,8.1,92,0.03,-SN,,0.08,42.0,WeatherDisplay:10.37,2013-02-19 17:33:00,
2013-02-19 12:38:00,35.9,33.8,29.82,SE,127,8.0,8.0,92,0.03,-SN,,0.08,63.0,WeatherDisplay:10.37,2013-02-19 17:38:00,
2013-02-19 12:43:00,36.1,34.0,29.81,SE,138,11.5,11.5,92,0.03,-SN,,0.08,46.0,WeatherDisplay:10.37,2013-02-19 17:43:00,
2013-02-19 12:48:00,36.2,34.1,29.81,SE,133,7.0,7.0,92,0.02,-SN,,0.08,37.0,WeatherDisplay:10.37,2013-02-19 17:48:00,
2013-02-19 12:53:00,36.4,34.3,29.80,SE,142,8.1,8.1,92,0.02,-SN,,0.08,53.0,WeatherDisplay:10.37,2013-02-19 17:53:00,
2013-02-19 12:58:00,36.5,34.4,29.80,SSE,150,4.6,4.6,92,0.02,-SN,,0.08,33.0,WeatherDisplay:10.37,2013-02-19 17:58:00,
2013-02-19 13:03:00,36.6,34.5,29.79,SE,137,6.9,6.9,92,0.02,-RA,,0.08,39.0,WeatherDisplay:10.37,2013-02-19 18:03:00,
2013-02-19 13:09:00,36.6,34.5,29.79,SSE,158,5.8,5.8,92,0.01,-RA,,0.08,33.0,WeatherDisplay:10.37,2013-02-19 18:09:00,
2013-02-19 13:14:00,36.7,34.6,29.79,SE,146,5.8,5.8,92,0.02,-RA,,0.09,33.0,WeatherDisplay:10.37,2013-02-19 18:14:00,
2013-02-19 13:19:00,36.7,34.6,29.78,SE,130,4.6,4.6,92,0.02,-RA,,0.09,39.0,WeatherDisplay:10.37,2013-02-19 18:19:00,
2013-02-19 13:24:00,36.9,34.8,29.78,SE,128,7.0,7.0,92,0.02,-RA,,0.09,28.0,WeatherDisplay:10.37,2013-02-19 18:24:00,
2013-02-19 13:29:00,37.0,34.9,29.77,SSE,157,11.5,11.5,92,0.02,-RA,,0.09,30.0,WeatherDisplay:10.37,2013-02-19 18:29:00,
2013-02-19 13:34:00,37.1,35.0,29.77,SE,133,9.2,9.2,92,0.01,-RA,,0.09,26.0,WeatherDisplay:10.37,2013-02-19 18:34:00,
2013-02-19 13:39:00,37.3,35.2,29.77,SSE,156,6.9,6.9,92,0.02,-RA,,0.10,26.0,WeatherDisplay:10.37,2013-02-19 18:39:00,
2013-02-19 13:44:00,37.4,35.3,29.77,SE,132,5.8,5.8,92,0.02,-RA,,0.10,23.0,WeatherDisplay:10.37,2013-02-19 18:44:00,
2013-02-19 13:49:00,37.5,35.7,29.76,South,171,5.0,5.0,93,0.02,-RA,,0.10,23.0,WeatherDisplay:10.37,2013-02-19 18:49:00,
2013-02-19 13:54:00,37.6,35.8,29.76,SE,140,6.9,7.0,93,0.02,-RA,,0.10,30.0,WeatherDisplay:10.37,2013-02-19 18:54:00,
2013-02-19 13:59:00,37.8,36.0,29.75,SSE,155,7.0,7.0,93,0.02,-RA,,0.10,44.0,WeatherDisplay:10.37,2013-02-19 18:59:00,
2013-02-19 14:04:00,37.9,36.1,29.75,SE,138,5.8,5.8,93,0.02,-RA,,0.10,46.0,WeatherDisplay:10.37,2013-02-19 19:04:00,
2013-02-19 14:09:00,38.0,36.2,29.75,SSE,154,8.0,8.0,93,0.02,-RA,,0.10,79.0,WeatherDisplay:10.37,2013-02-19 19:09:00,
2013-02-19 14:14:00,38.2,36.4,29.74,ESE,123,8.1,8.1,93,0.01,-RA,,0.10,77.0,WeatherDisplay:10.37,2013-02-19 19:14:00,
2013-02-19 14:19:00,38.3,36.5,29.74,SE,138,8.1,8.1,93,0.01,-RA,,0.10,44.0,WeatherDisplay:10.37,2013-02-19 19:19:00,
2013-02-19 14:24:00,38.3,36.5,29.74,SE,134,10.4,10.4,93,0.01,-RA,,0.10,39.0,WeatherDisplay:10.37,2013-02-19 19:24:00,
2013-02-19 14:29:00,38.3,36.5,29.74,SE,135,5.0,5.0,93,0.01,-RA,,0.10,23.0,WeatherDisplay:10.37,2013-02-19 19:29:00,
2013-02-19 14:34:00,38.3,36.5,29.73,SE,132,9.0,9.0,93,0.01,-RA,,0.10,23.0,WeatherDisplay:10.37,2013-02-19 19:34:00,
2013-02-19 14:39:00,38.4,36.6,29.73,SE,140,6.9,6.9,93,0.00,-RA,,0.10,16.0,WeatherDisplay:10.37,2013-02-19 19:39:00,
2013-02-19 14:44:00,38.4,36.6,29.72,SSE,149,5.8,5.8,93,0.00,-RA,,0.10,28.0,WeatherDisplay:10.37,2013-02-19 19:44:00,
2013-02-19 14:49:00,38.5,36.7,29.72,SE,138,5.8,5.8,93,0.00,-RA,,0.10,25.0,WeatherDisplay:10.37,2013-02-19 19:49:00,
2013-02-19 14:54:00,38.6,36.8,29.72,SSE,152,8.1,8.1,93,0.00,-RA,,0.10,30.0,WeatherDisplay:10.37,2013-02-19 19:54:00,
2013-02-19 14:59:00,38.6,36.8,29.71,SE,138,5.8,5.8,93,0.00,OVC,,0.10,39.0,WeatherDisplay:10.37,2013-02-19 19:59:00,
2013-02-19 15:04:00,38.7,36.9,29.71,SE,134,9.2,9.2,93,0.00,OVC,,0.10,37.0,WeatherDisplay:10.37,2013-02-19 20:04:00,
2013-02-19 15:09:00,38.8,36.9,29.71,SSE,164,5.8,5.8,93,0.00,OVC,,0.10,33.0,WeatherDisplay:10.37,2013-02-19 20:09:00,
2013-02-19 15:14:00,38.9,37.0,29.70,SSE,151,5.8,5.8,93,0.00,OVC,,0.10,26.0,WeatherDisplay:10.37,2013-02-19 20:14:00,
2013-02-19 15:19:00,38.9,37.0,29.70,SE,146,6.0,6.0,93,0.00,OVC,,0.10,26.0,WeatherDisplay:10.37,2013-02-19 20:19:00,
2013-02-19 15:24:00,39.0,37.1,29.71,SSE,166,6.9,6.9,93,0.01,RA,,0.11,30.0,WeatherDisplay:10.37,2013-02-19 20:24:00,
2013-02-19 15:29:00,39.0,37.1,29.71,SSE,167,4.6,4.6,93,0.01,RA,,0.11,25.0,WeatherDisplay:10.37,2013-02-19 20:29:00,
2013-02-19 15:34:00,39.1,37.2,29.71,SE,146,5.8,5.8,93,0.01,RA,,0.11,26.0,WeatherDisplay:10.37,2013-02-19 20:34:00,
2013-02-19 15:39:00,39.1,37.2,29.70,South,180,5.8,5.8,93,0.01,RA,,0.11,37.0,WeatherDisplay:10.37,2013-02-19 20:39:00,
2013-02-19 15:44:00,39.2,37.3,29.69,SSE,150,8.1,8.1,93,0.01,RA,,0.11,40.0,WeatherDisplay:10.37,2013-02-19 20:44:00,
2013-02-19 15:49:00,39.3,37.4,29.69,SE,138,4.6,4.6,93,0.01,RA,,0.11,40.0,WeatherDisplay:10.37,2013-02-19 20:49:00,
2013-02-19 15:54:00,39.4,37.5,29.69,SSE,155,5.0,5.0,93,0.01,RA,,0.11,37.0,WeatherDisplay:10.37,2013-02-19 20:54:00,
2013-02-19 15:59:00,39.5,37.6,29.68,SSE,161,5.8,5.8,93,0.01,RA,,0.11,30.0,WeatherDisplay:10.37,2013-02-19 20:59:00,
2013-02-19 16:04:00,39.6,37.7,29.68,South,169,6.9,6.9,93,0.01,RA,,0.11,30.0,WeatherDisplay:10.37,2013-02-19 21:04:00,
2013-02-19 16:09:00,39.6,37.7,29.68,SE,143,8.1,8.1,93,0.01,RA,,0.11,25.0,WeatherDisplay:10.37,2013-02-19 21:09:00,
2013-02-19 16:14:00,39.6,37.7,29.67,SE,132,6.9,6.9,93,0.01,RA,,0.11,32.0,WeatherDisplay:10.37,2013-02-19 21:14:00,
2013-02-19 16:19:00,39.7,37.8,29.66,SE,124,6.0,6.0,93,0.01,RA,,0.11,30.0,WeatherDisplay:10.37,2013-02-19 21:19:00,
2013-02-19 16:24:00,39.8,37.9,29.67,SSE,165,5.8,5.8,93,0.00,OVC,,0.11,32.0,WeatherDisplay:10.37,2013-02-19 21:24:00,
2013-02-19 16:29:00,39.8,37.9,29.67,SE,138,5.8,5.8,93,0.00,OVC,,0.11,23.0,WeatherDisplay:10.37,2013-02-19 21:29:00,
2013-02-19 16:34:00,39.8,37.9,29.67,SSE,147,6.9,6.9,93,0.00,OVC,,0.11,19.0,WeatherDisplay:10.37,2013-02-19 21:34:00,
2013-02-19 16:39:00,39.8,37.9,29.67,SSE,155,6.0,6.0,93,0.00,OVC,,0.11,18.0,WeatherDisplay:10.37,2013-02-19 21:39:00,
2013-02-19 16:44:00,39.8,37.9,29.67,SSE,155,5.8,5.8,93,0.00,OVC,,0.11,12.0,WeatherDisplay:10.37,2013-02-19 21:44:00,
2013-02-19 16:49:00,39.8,37.9,29.67,SSE,162,5.8,5.8,93,0.00,OVC,,0.11,12.0,WeatherDisplay:10.37,2013-02-19 21:49:00,
2013-02-19 16:54:00,39.8,37.9,29.67,SSE,153,5.8,5.8,93,0.00,OVC,,0.11,11.0,WeatherDisplay:10.37,2013-02-19 21:54:00,
2013-02-19 16:59:00,39.9,38.0,29.67,SSE,157,5.0,5.0,93,0.00,OVC,,0.11,16.0,WeatherDisplay:10.37,2013-02-19 21:59:00,
2013-02-19 17:04:00,40.0,38.1,29.66,SE,130,5.8,5.8,93,0.00,OVC,,0.11,21.0,WeatherDisplay:10.37,2013-02-19 22:04:00,
2013-02-19 17:09:00,40.0,38.1,29.66,SE,142,4.6,4.6,93,0.00,OVC,,0.11,21.0,WeatherDisplay:10.37,2013-02-19 22:09:00,
2013-02-19 17:14:00,40.1,38.5,29.67,SSE,159,5.0,5.0,94,0.00,OVC,,0.11,12.0,WeatherDisplay:10.37,2013-02-19 22:14:00,
2013-02-19 17:19:00,40.1,38.5,29.67,SSE,165,6.9,6.9,94,0.00,OVC,,0.11,7.0,WeatherDisplay:10.37,2013-02-19 22:19:00,
2013-02-19 17:24:00,40.1,38.2,29.68,South,180,4.0,4.0,93,0.00,OVC,,0.11,5.0,WeatherDisplay:10.37,2013-02-19 22:24:00,
2013-02-19 17:29:00,40.0,38.1,29.68,South,184,3.0,3.0,93,0.00,OVC,,0.11,0.0,WeatherDisplay:10.37,2013-02-19 22:29:00,
2013-02-19 17:34:00,40.0,38.1,29.68,South,179,4.6,4.6,93,0.00,OVC,,0.11,0.0,WeatherDisplay:10.37,2013-02-19 22:34:00,
2013-02-19 17:39:00,39.9,38.0,29.68,SSE,168,4.0,4.0,93,0.00,OVC,,0.11,0.0,WeatherDisplay:10.37,2013-02-19 22:39:00,
2013-02-19 17:44:00,39.9,38.3,29.69,South,188,3.5,3.5,94,0.00,OVC,,0.11,0.0,WeatherDisplay:10.37,2013-02-19 22:44:00,
2013-02-19 17:49:00,39.7,37.8,29.69,SSW,204,3.5,3.5,93,0.00,OVC,,0.11,0.0,WeatherDisplay:10.37,2013-02-19 22:49:00,
2013-02-19 17:54:00,39.7,37.8,29.70,WSW,244,3.5,3.5,93,0.00,OVC,,0.11,0.0,WeatherDisplay:10.37,2013-02-19 22:54:00,
2013-02-19 17:59:00,39.8,38.2,29.70,WSW,242,4.6,4.6,94,0.00,OVC,,0.11,0.0,WeatherDisplay:10.37,2013-02-19 22:59:00,
2013-02-19 18:04:00,39.9,38.3,29.71,WSW,252,4.6,4.6,94,0.00,OVC,,0.11,0.0,WeatherDisplay:10.37,2013-02-19 23:04:00,
2013-02-19 18:09:00,39.9,38.3,29.71,SW,234,3.5,3.5,94,0.02,RA,,0.13,0.0,WeatherDisplay:10.37,2013-02-19 23:09:00,
2013-02-19 18:14:00,39.8,38.2,29.71,WNW,303,2.3,2.3,94,0.03,RA,,0.14,0.0,WeatherDisplay:10.37,2013-02-19 23:14:00,
2013-02-19 18:19:00,39.8,38.2,29.71,SW,214,1.1,1.1,94,0.03,RA,,0.14,0.0,WeatherDisplay:10.37,2013-02-19 23:19:00,
2013-02-19 18:24:00,39.5,37.9,29.71,SSW,196,3.5,3.5,94,0.03,RA,,0.14,0.0,WeatherDisplay:10.37,2013-02-19 23:24:00,
2013-02-19 18:29:00,39.4,37.8,29.72,SSW,211,3.5,3.5,94,0.03,RA,,0.14,0.0,WeatherDisplay:10.37,2013-02-19 23:29:00,
2013-02-19 18:34:00,39.4,37.8,29.72,SSW,196,3.5,3.5,94,0.03,RA,,0.14,0.0,WeatherDisplay:10.37,2013-02-19 23:34:00,
2013-02-19 18:39:00,39.2,37.6,29.72,SSW,198,2.3,2.3,94,0.03,RA,,0.14,0.0,WeatherDisplay:10.37,2013-02-19 23:39:00,
2013-02-19 18:44:00,38.8,37.2,29.71,SSW,198,2.3,2.3,94,0.03,RA,,0.14,0.0,WeatherDisplay:10.37,2013-02-19 23:44:00,
2013-02-19 18:49:00,38.7,37.1,29.72,SSW,198,2.3,2.3,94,0.03,RA,,0.14,0.0,WeatherDisplay:10.37,2013-02-19 23:49:00,
2013-02-19 18:54:00,38.9,37.3,29.72,SSW,207,2.0,2.0,94,0.03,RA,,0.14,0.0,WeatherDisplay:10.37,2013-02-19 23:54:00,
2013-02-19 18:59:00,38.9,37.3,29.72,SSW,210,2.3,2.3,94,0.03,RA,,0.14,0.0,WeatherDisplay:10.37,2013-02-19 23:59:00,
2013-02-19 19:04:00,39.0,37.4,29.72,WSW,240,2.3,2.3,94,0.03,RA,,0.14,0.0,WeatherDisplay:10.37,2013-02-20 00:04:00,
2013-02-19 19:09:00,38.9,37.3,29.72,SW,222,2.3,2.3,94,0.01,RA,,0.14,0.0,WeatherDisplay:10.37,2013-02-20 00:09:00,
2013-02-19 19:14:00,38.8,37.2,29.72,SW,222,3.5,3.5,94,0.00,FEW,,0.14,0.0,WeatherDisplay:10.37,2013-02-20 00:14:00,
2013-02-19 19:19:00,38.6,37.0,29.72,SW,222,2.3,2.3,94,0.00,FEW,,0.14,0.0,WeatherDisplay:10.37,2013-02-20 00:19:00,
2013-02-19 19:24:00,38.4,36.8,29.72,SW,222,2.3,2.3,94,0.00,FEW,,0.14,0.0,WeatherDisplay:10.37,2013-02-20 00:24:00,
2013-02-19 19:29:00,38.3,36.7,29.72,WSW,255,2.3,2.3,94,0.00,FEW,,0.14,0.0,WeatherDisplay:10.37,2013-02-20 00:29:00,
2013-02-19 19:34:00,38.0,36.4,29.72,WSW,254,3.5,3.5,94,0.00,FEW,,0.14,0.0,WeatherDisplay:10.37,2013-02-20 00:34:00,
2013-02-19 19:39:00,38.1,36.5,29.73,West,262,3.5,3.5,94,0.00,FEW,,0.14,0.0,WeatherDisplay:10.37,2013-02-20 00:39:00,
2013-02-19 19:44:00,38.3,36.7,29.72,West,276,5.0,5.0,94,0.00,FEW,,0.14,0.0,WeatherDisplay:10.37,2013-02-20 00:44:00,
2013-02-19 19:49:00,38.4,36.8,29.72,WSW,255,8.1,8.1,94,0.00,FEW,,0.14,0.0,WeatherDisplay:10.37,2013-02-20 00:49:00,
2013-02-19 19:54:00,38.5,36.9,29.73,West,271,5.0,5.0,94,0.00,FEW,,0.14,0.0,WeatherDisplay:10.37,2013-02-20 00:54:00,
2013-02-19 19:59:00,38.3,36.7,29.73,WSW,250,9.2,9.2,94,0.00,CLR,,0.14,0.0,WeatherDisplay:10.37,2013-02-20 00:59:00,
2013-02-19 20:04:00,38.0,36.4,29.73,West,269,6.9,6.9,94,0.00,CLR,,0.14,0.0,WeatherDisplay:10.37,2013-02-20 01:04:00,
2013-02-19 20:09:00,37.7,36.1,29.73,WNW,290,10.4,10.4,94,0.00,CLR,,0.14,0.0,WeatherDisplay:10.37,2013-02-20 01:09:00,
2013-02-19 20:14:00,37.5,35.7,29.73,West,262,8.0,8.0,93,0.00,CLR,,0.14,0.0,WeatherDisplay:10.37,2013-02-20 01:14:00,
2013-02-19 20:19:00,37.3,35.5,29.74,WNW,288,4.6,4.6,93,0.00,CLR,,0.14,0.0,WeatherDisplay:10.37,2013-02-20 01:19:00,
2013-02-19 20:24:00,37.1,35.3,29.74,WNW,290,4.6,4.6,93,0.00,CLR,,0.14,0.0,WeatherDisplay:10.37,2013-02-20 01:24:00,
2013-02-19 20:29:00,36.9,34.8,29.74,WNW,288,8.1,8.1,92,0.00,CLR,,0.14,0.0,WeatherDisplay:10.37,2013-02-20 01:29:00,
2013-02-19 20:34:00,36.8,34.4,29.74,WNW,296,6.9,6.9,91,0.00,CLR,,0.14,0.0,WeatherDisplay:10.37,2013-02-20 01:34:00,
2013-02-19 20:39:00,36.7,34.3,29.74,West,267,5.8,5.8,91,0.00,CLR,,0.14,0.0,WeatherDisplay:10.37,2013-02-20 01:39:00,
2013-02-19 20:44:00,36.5,33.8,29.74,WNW,298,6.9,6.9,90,0.00,CLR,,0.14,0.0,WeatherDisplay:10.37,2013-02-20 01:44:00,
2013-02-19 20:49:00,36.4,33.5,29.74,WNW,291,4.6,4.6,89,0.00,CLR,,0.14,0.0,WeatherDisplay:10.37,2013-02-20 01:49:00,
2013-02-19 20:54:00,36.2,33.3,29.74,WNW,293,5.8,5.8,89,0.00,CLR,,0.14,0.0,WeatherDisplay:10.37,2013-02-20 01:54:00,
2013-02-19 20:59:00,36.1,33.2,29.74,WNW,294,3.5,3.5,89,0.00,CLR,,0.14,0.0,WeatherDisplay:10.37,2013-02-20 01:59:00,
2013-02-19 21:04:00,36.0,32.8,29.74,WNW,293,5.8,5.8,88,0.00,CLR,,0.14,0.0,WeatherDisplay:10.37,2013-02-20 02:04:00,
2013-02-19 21:09:00,35.9,32.7,29.74,NW,308,9.2,9.2,88,0.00,CLR,,0.14,0.0,WeatherDisplay:10.37,2013-02-20 02:09:00,
2013-02-19 21:14:00,35.9,32.4,29.75,WNW,300,11.5,11.5,87,0.00,CLR,,0.14,0.0,WeatherDisplay:10.37,2013-02-20 02:14:00,
2013-02-19 21:19:00,36.1,32.3,29.75,WNW,298,10.0,10.0,86,0.00,CLR,,0.14,0.0,WeatherDisplay:10.37,2013-02-20 02:19:00,
2013-02-19 21:24:00,36.1,31.7,29.75,WNW,290,10.4,10.4,84,0.00,CLR,,0.14,0.0,WeatherDisplay:10.37,2013-02-20 02:24:00,
2013-02-19 21:29:00,36.0,31.3,29.75,West,277,9.2,9.2,83,0.00,CLR,,0.14,0.0,WeatherDisplay:10.37,2013-02-20 02:29:00,
2013-02-19 21:34:00,35.9,30.9,29.75,WNW,291,6.9,6.9,82,0.00,CLR,,0.14,0.0,WeatherDisplay:10.37,2013-02-20 02:34:00,
2013-02-19 21:39:00,35.8,30.5,29.76,WNW,292,8.1,8.1,81,0.00,CLR,,0.14,0.0,WeatherDisplay:10.37,2013-02-20 02:39:00,
2013-02-19 21:44:00,35.7,30.1,29.76,WNW,299,6.0,6.0,80,0.00,CLR,,0.14,0.0,WeatherDisplay:10.37,2013-02-20 02:44:00,
2013-02-19 21:49:00,35.6,29.7,29.76,WNW,286,8.1,8.1,79,0.00,CLR,,0.14,0.0,WeatherDisplay:10.37,2013-02-20 02:49:00,
2013-02-19 21:54:00,35.7,29.5,29.76,NW,309,8.0,8.0,78,0.00,CLR,,0.14,0.0,WeatherDisplay:10.37,2013-02-20 02:54:00,
2013-02-19 21:59:00,35.8,29.3,29.76,NW,309,9.2,9.2,77,0.00,CLR,,0.14,0.0,WeatherDisplay:10.37,2013-02-20 02:59:00,
2013-02-19 22:04:00,36.0,28.8,29.77,WNW,289,11.5,11.5,75,0.00,CLR,,0.14,0.0,WeatherDisplay:10.37,2013-02-20 03:04:00,
2013-02-19 22:09:00,35.8,28.3,29.77,WNW,302,6.0,6.0,74,0.00,CLR,,0.14,0.0,WeatherDisplay:10.37,2013-02-20 03:09:00,
2013-02-19 22:14:00,35.6,28.1,29.77,WNW,294,8.1,8.1,74,0.00,CLR,,0.14,0.0,WeatherDisplay:10.37,2013-02-20 03:14:00,
2013-02-19 22:19:00,35.4,27.6,29.77,West,280,9.2,9.2,73,0.00,CLR,,0.14,0.0,WeatherDisplay:10.37,2013-02-20 03:19:00,
2013-02-19 22:24:00,35.3,27.5,29.77,WNW,286,7.0,7.0,73,0.00,CLR,,0.14,0.0,WeatherDisplay:10.37,2013-02-20 03:24:00,
2013-02-19 22:29:00,35.2,27.1,29.77,WNW,296,6.9,6.9,72,0.00,CLR,,0.14,0.0,WeatherDisplay:10.37,2013-02-20 03:29:00,
2013-02-19 22:34:00,35.1,27.0,29.77,West,275,6.9,6.9,72,0.00,CLR,,0.14,0.0,WeatherDisplay:10.37,2013-02-20 03:34:00,
2013-02-19 22:39:00,34.9,27.1,29.76,West,268,8.1,8.1,73,0.00,CLR,,0.14,0.0,WeatherDisplay:10.37,2013-02-20 03:39:00,
2013-02-19 22:44:00,34.6,26.8,29.76,West,265,6.9,6.9,73,0.00,CLR,,0.14,0.0,WeatherDisplay:10.37,2013-02-20 03:44:00,
2013-02-19 22:49:00,34.4,26.6,29.76,WNW,288,5.8,5.8,73,0.00,CLR,,0.14,0.0,WeatherDisplay:10.37,2013-02-20 03:49:00,
2013-02-19 22:54:00,34.4,26.6,29.76,WNW,286,5.8,5.8,73,0.00,CLR,,0.14,0.0,WeatherDisplay:10.37,2013-02-20 03:54:00,
2013-02-19 22:59:00,34.4,26.6,29.77,West,265,8.1,8.1,73,0.00,CLR,,0.14,0.0,WeatherDisplay:10.37,2013-02-20 03:59:00,
2013-02-19 23:05:00,34.4,26.6,29.77,West,278,8.0,8.0,73,0.00,CLR,,0.14,0.0,WeatherDisplay:10.37,2013-02-20 04:05:00,
2013-02-19 23:10:00,34.4,26.6,29.77,West,279,8.1,8.1,73,0.00,CLR,,0.14,0.0,WeatherDisplay:10.37,2013-02-20 04:10:00,
2013-02-19 23:15:00,34.4,26.3,29.77,West,275,10.4,10.4,72,0.00,CLR,,0.14,0.0,WeatherDisplay:10.37,2013-02-20 04:15:00,
2013-02-19 23:20:00,34.4,26.3,29.77,WNW,286,8.1,8.1,72,0.00,CLR,,0.14,0.0,WeatherDisplay:10.37,2013-02-20 04:20:00,
2013-02-19 23:25:00,34.4,26.3,29.77,WNW,284,9.2,9.2,72,0.00,CLR,,0.14,0.0,WeatherDisplay:10.37,2013-02-20 04:25:00,
2013-02-19 23:30:00,34.4,26.3,29.77,WNW,293,10.4,10.4,72,0.00,CLR,,0.14,0.0,WeatherDisplay:10.37,2013-02-20 04:30:00,
2013-02-19 23:35:00,34.4,26.3,29.77,West,267,6.9,6.9,72,0.00,CLR,,0.14,0.0,WeatherDisplay:10.37,2013-02-20 04:35:00,
2013-02-19 23:40:00,34.4,26.3,29.77,West,281,6.9,6.9,72,0.00,CLR,,0.14,0.0,WeatherDisplay:10.37,2013-02-20 04:40:00,
2013-02-19 23:45:00,34.4,26.0,29.77,West,260,11.5,11.5,71,0.00,CLR,,0.14,0.0,WeatherDisplay:10.37,2013-02-20 04:45:00,
2013-02-19 23:50:00,34.7,25.6,29.77,WNW,286,10.4,10.4,69,0.00,CLR,,0.14,0.0,WeatherDisplay:10.37,2013-02-20 04:50:00,
2013-02-19 23:55:00,34.4,25.3,29.77,WNW,293,10.0,10.0,69,0.00,CLR,,0.14,0.0,WeatherDisplay:10.37,2013-02-20 04:55:00,